This demonstration page uses our WeatherBlox Daily Observations layout. Learn more.

Left ArrowRight Arrow

39.01783, -85.05884

Hourly Observations for January 28, 2020

Temp ( °F °C ) Dew Point ( °F °C ) Humidity (%) Winds ( mph kmh ) Pressure ( in mb ) Visibility ( mi km ) Precip ( " mm )
12:08 am 00:08 Cloudy with Haze 33 0.6 28 -2.2 82 82 NNW 8 13 30.07 1018 6 10 0.00 0.00
12:52 am 00:52 Cloudy with Haze 33 0.6 28 -2.2 82 82 NNW 8 13 30.04 1017 6 10 0.00 0.00
1:25 am 01:25 Cloudy with Haze 33 0.6 28 -2.2 82 82 NNW 7 11 30.07 1018 6 10 0.00 0.00
1:38 am 01:38 Cloudy with Haze 33 0.6 28 -2.2 82 82 NW 7 11 30.07 1018 6 10 0.00 0.00
1:52 am 01:52 Cloudy with Mist and Fog 32 0 28 -2.2 85 85 NW 6 9 30.04 1017 6 10 0.00 0.00
2:52 am 02:52 Cloudy with Haze 33 0.6 28 -2.2 82 82 WNW 3 6 30.05 1018 6 10 0.00 0.00
3:52 am 03:52 Cloudy with Mist and Fog 32 0 28 -2.2 85 85 W 6 9 30.06 1018 5 8 0.00 0.00
4:52 am 04:52 Cloudy with Mist and Fog 32 0 29 -1.7 88 88 WNW 5 7 30.05 1018 6 10 0.00 0.00
5:52 am 05:52 Cloudy 33 0.6 25 -3.9 72 72 VRB 3 6 30.05 1018 10 16 0.00 0.00
6:52 am 06:52 Cloudy 33 0.6 26 -3.3 75 75 WNW 5 7 30.07 1018 10 16 0.00 0.00
7:52 am 07:52 Cloudy 33 0.6 26 -3.3 75 75 Calm 30.08 1019 10 16 0.00 0.00
8:52 am 08:52 Cloudy 33 0.6 27 -2.8 78 78 Calm 30.10 1019 9 14 0.00 0.00
9:52 am 09:52 Cloudy 33 0.6 27 -2.8 78 78 Calm 30.11 1020 8 13 0.00 0.00
10:52 am 10:52 Cloudy 34 1.1 28 -2.2 79 79 W 5 7 30.11 1020 8 13 0.00 0.00
11:52 am 11:52 Cloudy 34 1.1 28 -2.2 79 79 W 5 7 30.11 1020 8 13 0.00 0.00
12:52 pm 12:52 Cloudy 35 1.7 27 -2.8 72 72 NW 6 9 30.08 1019 9 14 0.00 0.00
1:52 pm 13:52 Cloudy 34 1.1 27 -2.8 76 76 NNW 6 9 30.06 1018 9 14 0.00 0.00
2:52 pm 14:52 Cloudy 34 1.1 27 -2.8 76 76 W 6 9 30.06 1018 9 14 0.00 0.00
3:52 pm 15:52 Cloudy 34 1.1 27 -2.8 76 76 WNW 5 7 30.07 1018 9 14 0.00 0.00
4:52 pm 16:52 Cloudy with Haze 34 1.1 28 -2.2 79 79 W 7 11 30.09 1019 6 10 0.00 0.00
5:52 pm 17:52 Cloudy 34 1.1 28 -2.2 79 79 WNW 5 7 30.10 1019 8 13 0.00 0.00
6:52 pm 18:52 Cloudy 34 1.1 28 -2.2 79 79 N 3 6 30.09 1019 9 14 0.00 0.00
7:52 pm 19:52 Cloudy 34 1.1 27 -2.8 76 76 N 3 6 30.10 1019 10 16 0.00 0.00
8:52 pm 20:52 Cloudy 34 1.1 27 -2.8 76 76 NNW 3 6 30.11 1020 10 16 0.00 0.00
9:52 pm 21:52 Cloudy 33 0.6 28 -2.2 82 82 NNW 3 6 30.11 1020 9 14 0.00 0.00
10:52 pm 22:52 Cloudy 34 1.1 26 -3.3 73 73 NNW 6 9 30.10 1019 10 16 0.00 0.00
11:52 pm 23:52 Cloudy 33 0.6 27 -2.8 78 78 NNW 5 7 30.11 1020 10 16 0.00 0.00

Powered by AerisWeather